CW4490 Weather Reports


time (UTC)temp
C
wind
direction
speed
KPH
gust
KPH
rain 1hr
cm
rain 24hr
cm
rain mn
cm
humidity
%
barometer
mb
20260506221904 15 355 8.0 20.9 0.00 0.05 0.05 81 1007.6
20260506221408 15 342 12.9 20.9 0.00 0.05 0.05 81 1007.7
20260506220410 15 355 6.4 19.3 0.00 0.05 0.05 81 1007.7
20260506215852 15 342 9.7 17.7 0.00 0.05 0.05 81 1007.8
20260506215418 15 337 8.0 20.9 0.00 0.05 0.05 82 1007.8
20260506214351 15 333 14.5 27.4 0.00 0.05 0.05 82 1007.7
20260506213838 15 297 11.3 27.4 0.00 0.05 0.05 81 1007.7
20260506213405 15 324 12.9 24.1 0.00 0.05 0.05 81 1007.7
20260506211502 16 315 9.7 19.3 0.00 0.05 0.05 80 1008.0
20260506210947 16 20 11.3 19.3 0.00 0.05 0.05 81 1008.0
20260506210444 16 355 9.7 20.9 0.00 0.05 0.05 80 1008.0
20260506205439 15 326 12.9 22.5 0.00 0.05 0.05 81 1008.2
20260506204926 15 298 14.5 22.5 0.00 0.05 0.05 81 1008.2
20260506204433 15 292 11.3 27.4 0.00 0.05 0.05 81 1008.2
20260506203428 16 314 11.3 24.1 0.00 0.05 0.05 80 1008.3
20260506202912 16 355 16.1 24.1 0.00 0.05 0.05 80 1008.2
20260506202438 16 244 12.9 27.4 0.00 0.05 0.05 80 1008.2
20260506200859 16 319 16.1 24.1 0.00 0.05 0.05 80 1007.9
20260506200355 16 312 14.5 27.4 0.00 0.05 0.05 80 1007.9
20260506195859 16 344 14.5 27.4 0.00 0.05 0.05 79 1007.8
20260506194858 16 360 14.5 30.6 0.00 0.05 0.05 79 1007.8
20260506194403 17 326 17.7 30.6 0.00 0.05 0.05 79 1007.7
20260506193847 17 360 14.5 25.7 0.00 0.05 0.05 79 1007.7
20260506192838 17 319 12.9 27.4 0.00 0.05 0.05 80 1007.8
20260506192405 17 322 17.7 27.4 0.00 0.05 0.05 80 1007.8
20260506192009 17 348 11.3 25.7 0.00 0.05 0.05 80 1007.8
20260506191452 17 311 14.5 25.7 0.00 0.05 0.05 80 1007.8
20260506191017 18 355 8.0 20.9 0.00 0.05 0.05 81 1007.9
20260506185940 17 313 14.5 22.5 0.00 0.05 0.05 81 1008.0
20260506185427 17 20 9.7 27.4 0.00 0.05 0.05 81 1008.0
20260506184954 17 310 12.9 27.4 0.00 0.05 0.05 81 1008.0
20260506183415 20 17 19.3 29.0 0.00 0.05 0.05 77 1007.6
20260506182922 21 342 14.5 27.4 0.00 0.05 0.05 76 1007.0
20260506181406 22 360 11.3 19.3 0.00 0.05 0.05 74 1007.2
20260506180932 22 306 8.0 19.3 0.00 0.05 0.05 75 1007.2
20260506180405 22 355 6.4 17.7 0.00 0.05 0.05 75 1007.2
20260506175418 22 9 6.4 9.7 0.00 0.05 0.05 77 1007.0
20260506174845 22 196 6.4 14.5 0.00 0.05 0.05 77 1007.0
20260506174410 21 346 4.8 14.5 0.00 0.05 0.05 78 1006.7
20260506173343 21 36 6.4 16.1 0.00 0.05 0.05 79 1006.7
20260506172833 21 360 8.0 16.1 0.00 0.05 0.05 80 1006.7
20260506172338 20 87 3.2 9.7 0.00 0.05 0.05 81 1006.7
20260506171952 20 94 4.8 12.9 0.00 0.05 0.05 81 1006.7
20260506171436 20 102 6.4 12.9 0.00 0.05 0.05 83 1006.7
20260506170441 19 32 3.2 16.1 0.03 0.05 0.05 84 1006.7
20260506165927 18 360 6.4 11.3 0.05 0.05 0.05 85 1006.8
20260506165433 18 55 4.8 14.5 0.05 0.05 0.05 86 1006.8
20260506164940 18 360 6.4 14.5 0.05 0.05 0.05 87 1006.8
20260506163917 17 88 3.2 11.3 0.05 0.05 0.05 88 1007.2
20260506163442 17 360 4.8 11.3 0.05 0.05 0.05 88 1007.2
20260506162909 16 56 8.0 11.3 0.05 0.05 0.05 88 1008.1
20260506162415 16 329 6.4 11.3 0.05 0.05 0.05 88 1008.1
20260506160858 16 355 6.4 16.1 0.03 0.03 0.03 87 1008.2
20260506160356 16 44 6.4 14.5 0.03 0.03 0.03 86 1008.2
20260506155900 16 329 6.4 19.3 0.00 0.00 0.00 86 1008.2
20260506154853 16 310 12.9 19.3 0.00 0.00 0.00 86 1008.2
20260506154359 16 328 9.7 22.5 0.00 0.00 0.00 86 1008.2
20260506153843 16 327 12.9 25.7 0.00 0.00 0.00 85 1008.2
20260506153349 16 350 11.3 25.7 0.00 0.00 0.00 85 1008.2
20260506152339 17 315 14.5 25.7 0.00 0.00 0.00 85 1007.8
20260506151438 17 303 12.9 25.7 0.00 0.00 0.00 86 1007.8
20260506150946 18 336 9.7 22.5 0.00 0.00 0.00 86 1007.8
20260506150443 18 355 9.7 22.5 0.00 0.00 0.00 86 1007.8
20260506145949 18 329 11.3 22.5 0.00 0.00 0.00 86 1006.9
20260506145434 18 15 6.4 20.9 0.00 0.00 0.00 86 1006.9
20260506144922 18 17 8.0 20.9 0.00 0.00 0.00 86 1006.9
20260506144427 18 16 8.0 22.5 0.00 0.00 0.00 86 1006.3
20260506143914 19 360 12.9 25.7 0.00 0.00 0.00 86 1006.4
20260506143422 19 296 17.7 24.1 0.00 0.00 0.00 86 1006.4
20260506142908 20 333 9.7 22.5 0.00 0.00 0.00 86 1005.4
20260506142416 20 49 6.4 22.5 0.00 0.00 0.00 86 1005.4
20260506141903 21 302 9.7 19.3 0.00 0.00 0.00 85 1005.4
20260506141407 21 327 8.0 24.1 0.00 0.00 0.00 83 1004.8
20260506140854 23 333 14.5 24.1 0.00 0.00 0.00 81 1004.9
20260506140353 24 17 0.0 6.4 0.00 0.00 0.00 86 1005.0
20260506135900 24 107 1.6 6.4 0.00 0.00 0.00 86 1005.1
20260506135347 24 131 0.0 1.6 0.00 0.00 0.00 87 1005.1
20260506134915 24 126 0.0 8.0 0.00 0.00 0.00 88 1005.1
20260506134339 24 163 0.0 8.0 0.00 0.00 0.00 88 1004.8
20260506133846 23 78 0.0 6.4 0.00 0.00 0.00 88 1004.8
20260506133334 23 160 0.0 1.6 0.00 0.00 0.00 88 1004.8
20260506132839 23 160 0.0 1.6 0.00 0.00 0.00 88 1004.6
20260506132408 23 160 0.0 1.6 0.00 0.00 0.00 89 1004.6
20260506131446 23 159 0.0 4.8 0.00 0.00 0.00 89 1004.2
20260506130933 23 142 0.0 4.8 0.00 0.00 0.00 89 1004.2
20260506130431 23 141 0.0 8.0 0.00 0.00 0.00 90 1004.2
20260506125936 23 142 1.6 8.0 0.00 0.00 0.00 90 1004.2
20260506125425 23 195 0.0 3.2 0.00 0.00 0.00 90 1004.2
20260506124933 23 177 1.6 3.2 0.00 0.00 0.00 90 1004.2
20260506124419 23 187 0.0 0.0 0.00 0.00 0.00 90 1004.0
20260506123946 23 189 0.0 0.0 0.00 0.00 0.00 90 1004.0
20260506123432 23 189 0.0 0.0 0.00 0.00 0.00 89 1004.0
20260506122916 22 189 0.0 3.2 0.00 0.00 0.00 89 1003.8
20260506122423 22 199 0.0 3.2 0.00 0.00 0.00 89 1003.8
20260506121910 22 200 0.0 1.6 0.00 0.00 0.00 89 1003.8
20260506121416 22 153 0.0 0.0 0.00 0.00 0.00 89 1003.9
20260506120905 22 153 0.0 0.0 0.00 0.00 0.00 89 1003.9
20260506120404 22 153 0.0 0.0 0.00 0.00 0.00 89 1003.9
20260506115851 23 180 0.0 0.0 0.00 0.00 0.00 89 1003.9
20260506115358 23 178 0.0 0.0 0.00 0.00 0.00 89 1003.9
20260506114850 23 177 0.0 0.0 0.00 0.00 0.00 89 1003.9
20260506114355 23 176 0.0 0.0 0.00 0.00 0.00 89 1003.9
20260506113840 23 175 0.0 0.0 0.00 0.00 0.00 89 1003.9
20260506113347 23 175 0.0 0.0 0.00 0.00 0.00 88 1003.9
20260506112832 23 175 0.0 0.0 0.00 0.00 0.00 88 1004.1
20260506112339 23 175 0.0 0.0 0.00 0.00 0.00 88 1004.1
20260506111846 23 175 0.0 0.0 0.00 0.00 0.00 88 1004.1
20260506111455 23 174 0.0 0.0 0.00 0.00 0.00 88 1004.2
20260506110944 23 174 0.0 0.0 0.00 0.00 0.00 88 1004.2
20260506110442 23 174 0.0 0.0 0.00 0.00 0.00 88 1004.2
20260506105946 23 174 0.0 0.0 0.00 0.00 0.00 88 1004.0
20260506105434 23 173 0.0 0.0 0.00 0.00 0.00 87 1004.0
20260506105003 23 178 0.0 0.0 0.00 0.00 0.00 87 1004.0
20260506104448 23 176 0.0 0.0 0.00 0.00 0.00 87 1003.9
20260506103934 23 175 0.0 0.0 0.00 0.00 0.00 87 1003.9
20260506103421 23 175 0.0 0.0 0.00 0.00 0.00 87 1003.9
20260506102927 23 175 0.0 0.0 0.00 0.00 0.00 87 1003.8
20260506102413 23 175 0.0 0.0 0.00 0.00 0.00 86 1003.8
20260506101943 23 175 0.0 0.0 0.00 0.00 0.00 86 1003.8
20260506101408 23 175 0.0 1.6 0.00 0.00 0.00 86 1003.4
20260506100857 23 175 0.0 1.6 0.00 0.00 0.00 86 1003.4
20260506100408 23 174 0.0 0.0 0.00 0.00 0.00 86 1003.4
20260506095859 23 185 0.0 4.8 0.00 0.00 0.00 86 1003.5
20260506095406 23 188 0.0 4.8 0.00 0.00 0.00 86 1003.5
20260506094854 23 174 0.0 4.8 0.00 0.00 0.00 86 1003.5
20260506094340 23 174 0.0 14.5 0.00 0.00 0.00 85 1003.2
20260506093847 23 166 3.2 14.5 0.00 0.00 0.00 85 1003.2
20260506093354 23 200 0.0 4.8 0.00 0.00 0.00 85 1003.2
20260506092838 23 200 0.0 6.4 0.00 0.00 0.00 85 1002.9
20260506092404 23 198 1.6 6.4 0.00 0.00 0.00 85 1002.9
20260506091831 23 161 3.2 6.4 0.00 0.00 0.00 85 1002.9
20260506091514 23 170 1.6 6.4 0.00 0.00 0.00 85 1002.9
20260506090937 23 140 0.0 8.0 0.00 0.00 0.00 85 1002.9
20260506090458 23 218 1.6 11.3 0.00 0.00 0.00 85 1002.9
20260506085943 23 179 1.6 11.3 0.00 0.00 0.00 85 1002.7
20260506085449 23 171 1.6 11.3 0.00 0.00 0.00 85 1002.7
20260506084934 23 182 4.8 11.3 0.00 0.00 0.00 84 1002.7
20260506084421 23 275 1.6 9.7 0.00 0.00 0.00 84 1002.8
20260506083927 23 191 4.8 9.7 0.00 0.00 0.00 84 1002.8
20260506083414 23 227 1.6 8.0 0.00 0.00 0.00 84 1002.8
20260506082921 23 225 1.6 11.3 0.00 0.00 0.00 84 1002.8
20260506082413 23 180 1.6 12.9 0.00 0.00 0.00 84 1002.8
20260506081919 23 184 4.8 14.5 0.00 0.00 0.00 84 1002.8
20260506081404 23 238 1.6 14.5 0.00 0.00 0.00 84 1002.9
20260506080911 23 206 3.2 16.1 0.00 0.00 0.00 84 1002.9
20260506080402 23 191 4.8 16.1 0.00 0.00 0.00 84 1002.9
20260506073349 23 194 1.6 16.1 0.00 0.00 0.00 84 1003.0
20260506072836 24 140 3.2 16.1 0.00 0.00 0.00 84 1003.2
20260506072405 23 178 3.2 17.7 0.00 0.00 0.00 84 1003.2
20260506071854 23 233 9.7 19.3 0.00 0.00 0.00 84 1003.2
20260506071441 23 169 6.4 19.3 0.00 0.00 0.00 84 1003.3
20260506070949 23 163 6.4 17.7 0.00 0.00 0.00 84 1003.3
20260506070505 23 179 3.2 17.7 0.00 0.00 0.00 85 1003.3
20260506062436 24 143 4.8 16.1 0.00 0.00 0.00 84 1002.9
20260506061944 24 237 4.8 17.7 0.00 0.00 0.00 84 1003.0
20260506061408 24 156 3.2 17.7 0.00 0.00 0.00 84 1003.0
20260506060915 23 221 4.8 17.7 0.00 0.00 0.00 85 1002.9
20260506060415 23 187 6.4 16.1 0.00 0.00 0.00 85 1002.9
20260506050938 24 184 4.8 16.1 0.00 0.00 0.00 84 1003.4
20260506050436 24 164 3.2 17.7 0.00 0.00 0.00 84 1003.4
20260506044935 24 178 4.8 16.1 0.00 0.00 0.00 84 1003.1
20260506044419 24 165 3.2 16.1 0.00 0.00 0.00 84 1003.2
20260506043927 24 164 4.8 11.3 0.00 0.00 0.00 84 1003.2
20260506043434 24 146 3.2 16.1 0.00 0.00 0.00 84 1003.2
20260506042919 24 159 1.6 20.9 0.00 0.00 0.00 83 1002.9
20260506042426 24 192 4.8 20.9 0.00 0.00 0.00 83 1002.9
20260506041914 24 183 4.8 12.9 0.00 0.00 0.00 83 1002.9
20260506041439 24 169 6.4 11.3 0.00 0.00 0.00 83 1002.9
20260506040903 24 198 4.8 17.7 0.00 0.00 0.00 83 1002.9
20260506040401 25 185 4.8 17.7 0.00 0.00 0.00 83 1002.9
20260506035908 25 186 6.4 9.7 0.00 0.00 0.00 82 1002.8
20260506035352 25 205 1.6 4.8 0.00 0.00 0.00 81 1002.8
20260506034900 25 207 0.0 11.3 0.00 0.00 0.00 81 1002.8
20260506034406 25 188 0.0 11.3 0.00 0.00 0.00 81 1002.4
20260506033853 25 193 4.8 11.3 0.00 0.00 0.00 81 1002.4
20260506033401 25 206 3.2 11.3 0.00 0.00 0.00 81 1002.4
20260506032846 25 184 1.6 11.3 0.00 0.00 0.00 82 1002.4
20260506032332 24 196 6.4 11.3 0.00 0.00 0.00 82 1002.4
20260506031842 24 171 0.0 1.6 0.00 0.00 0.00 81 1002.4
20260506031348 24 177 0.0 1.6 0.00 0.00 0.00 81 1002.1
20260506030952 25 175 0.0 0.0 0.00 0.00 0.00 81 1002.2
20260506030449 25 169 0.0 4.8 0.00 0.00 0.00 81 1002.2
20260506025934 25 165 1.6 4.8 0.00 0.00 0.00 80 1002.1
20260506025442 25 190 0.0 4.8 0.00 0.00 0.00 80 1002.1
20260506024932 25 191 3.2 6.4 0.00 0.00 0.00 80 1002.1
20260506024439 25 180 0.0 8.0 0.00 0.00 0.00 79 1001.8
20260506023925 25 198 3.2 8.0 0.00 0.00 0.00 79 1001.8
20260506023452 25 153 0.0 4.8 0.00 0.00 0.00 79 1001.8
20260506022917 25 188 0.0 8.0 0.00 0.00 0.00 78 1001.5
20260506022424 25 182 1.6 8.0 0.00 0.00 0.00 78 1001.5
20260506021911 25 165 3.2 4.8 0.00 0.00 0.00 78 1001.5
20260506021417 25 182 1.6 6.4 0.00 0.00 0.00 77 1001.3
20260506020904 25 182 1.6 8.0 0.00 0.00 0.00 77 1001.3
20260506020402 26 170 1.6 8.0 0.00 0.00 0.00 77 1001.3
20260506015909 26 165 3.2 6.4 0.00 0.00 0.00 76 1000.9
20260506015356 26 140 0.0 9.7 0.00 0.00 0.00 76 1000.9
20260506014924 26 191 3.2 9.7 0.00 0.00 0.00 76 1000.9
20260506014349 26 155 4.8 9.7 0.00 0.00 0.00 76 1000.8
20260506013916 26 180 4.8 9.7 0.00 0.00 0.00 75 1000.8
20260506013342 26 174 4.8 9.7 0.00 0.00 0.00 75 1000.8
20260506012848 26 217 1.6 9.7 0.00 0.00 0.00 75 1000.8
20260506012333 26 175 4.8 11.3 0.00 0.00 0.00 75 1000.8
20260506011842 26 146 3.2 11.3 0.00 0.00 0.00 74 1000.8
20260506011327 26 360 4.8 9.7 0.00 0.00 0.00 74 1000.7
20260506010936 26 360 4.8 11.3 0.00 0.00 0.00 74 1000.7
20260506010454 26 181 4.8 11.3 0.00 0.00 0.00 73 1000.7
20260506005939 27 360 3.2 8.0 0.00 0.00 0.00 73 1000.7
20260506005446 27 360 4.8 16.1 0.00 0.00 0.00 73 1000.7
20260506004954 27 360 4.8 16.1 0.00 0.00 0.00 72 1000.7
20260506004439 27 131 8.0 16.1 0.00 0.00 0.00 71 1000.7
20260506003927 27 149 6.4 16.1 0.00 0.00 0.00 71 1000.7
20260506003434 27 137 4.8 14.5 0.00 0.00 0.00 71 1000.7
20260506002920 27 170 6.4 16.1 0.00 0.00 0.00 71 1000.8
20260506002427 27 146 8.0 16.1 0.00 0.00 0.00 71 1000.8
20260506001914 27 151 6.4 14.5 0.00 0.00 0.00 71 1000.8
20260506001420 27 169 6.4 14.5 0.00 0.00 0.00 71 1000.8
20260506000907 27 107 3.2 9.7 0.00 0.00 0.00 71 1000.8
20260506000405 27 151 4.8 17.7 0.00 0.00 0.00 71 1000.8
20260505235912 27 163 8.0 17.7 0.00 0.00 0.00 70 1000.7
20260505235358 27 159 3.2 11.3 0.00 0.00 0.00 71 1000.7
20260505234849 27 123 1.6 8.0 0.00 0.00 0.00 71 1000.7
20260505234355 28 149 4.8 11.3 0.00 0.00 0.00 70 1000.6
20260505233859 28 159 4.8 16.1 0.00 0.00 0.00 70 1000.6
20260505233347 28 118 8.0 16.1 0.00 0.00 0.00 70 1000.6
20260505232854 28 153 8.0 16.1 0.00 0.00 0.00 70 1000.6
20260505232340 28 195 4.8 16.1 0.00 0.00 0.00 69 1000.6
20260505231849 28 126 6.4 16.1 0.00 0.00 0.00 69 1000.6
20260505231334 28 158 4.8 16.1 0.00 0.00 0.00 69 1000.4
20260505230959 28 169 4.8 16.1 0.00 0.00 0.00 68 1000.4
20260505230457 28 128 9.7 16.1 0.00 0.00 0.00 68 1000.4
20260505225943 28 144 6.4 11.3 0.00 0.00 0.00 68 1000.3
20260505225450 28 263 3.2 11.3 0.00 0.00 0.00 68 1000.3
20260505224938 28 156 6.4 19.3 0.00 0.00 0.00 68 1000.3
20260505224443 28 123 6.4 19.3 0.00 0.00 0.00 68 1000.4
20260505223930 28 156 4.8 16.1 0.00 0.00 0.00 68 1000.4
20260505223421 28 130 4.8 17.7 0.00 0.00 0.00 67 1000.4
20260505222927 28 195 8.0 17.7 0.00 0.00 0.00 67 1000.1